Time,TemperatureF,DewpointF,PressureIn,WindDirection,WindDirectionDegrees,WindSpeedMPH,WindSpeedGustMPH,Humidity,HourlyPrecipIn,Conditions,Clouds,dailyrainin,SolarRadiationWatts/m^2,SoftwareType,DateUTC
2013-08-15 00:01:00,53.9,52.8,30.22,WNW,302,1.0,1.0,96,0.00,,,0.00,0,Wunderground v.1.15,2013-08-15 04:01:00,
2013-08-15 00:02:00,53.8,52.7,30.23,WNW,302,1.0,1.0,96,0.00,,,0.00,0,Wunderground v.1.15,2013-08-15 04:02:00,
2013-08-15 00:03:00,53.8,52.7,30.23,WNW,302,1.0,1.0,96,0.00,,,0.00,0,Wunderground v.1.15,2013-08-15 04:03:00,
2013-08-15 00:05:00,53.7,52.6,30.23,WNW,302,0.0,1.0,96,0.00,,,0.00,0,Wunderground v.1.15,2013-08-15 04:05:00,
2013-08-15 00:10:00,53.6,52.5,30.23,WNW,301,0.0,0.0,96,0.00,,,0.00,0,Wunderground v.1.15,2013-08-15 04:10:00,
2013-08-15 00:15:00,53.6,52.5,30.23,WNW,298,0.0,0.0,96,0.00,,,0.00,0,Wunderground v.1.15,2013-08-15 04:15:00,
2013-08-15 00:21:00,53.4,52.3,30.23,NW,304,0.0,0.0,96,0.00,,,0.00,0,Wunderground v.1.15,2013-08-15 04:21:00,
2013-08-15 00:26:00,53.3,52.2,30.23,WNW,302,0.0,0.0,96,0.00,,,0.00,0,Wunderground v.1.15,2013-08-15 04:26:00,
2013-08-15 00:31:00,53.3,52.5,30.23,WNW,302,0.0,0.0,97,0.00,,,0.00,0,Wunderground v.1.15,2013-08-15 04:31:00,
2013-08-15 00:37:00,53.2,52.1,30.24,NW,304,0.0,3.0,96,0.00,,,0.00,0,Wunderground v.1.15,2013-08-15 04:37:00,
2013-08-15 00:42:00,53.1,52.0,30.24,WNW,303,1.0,2.0,96,0.00,,,0.00,0,Wunderground v.1.15,2013-08-15 04:42:00,
2013-08-15 00:48:00,53.0,51.9,30.24,WNW,301,1.0,2.0,96,0.00,,,0.00,0,Wunderground v.1.15,2013-08-15 04:48:00,
2013-08-15 00:53:00,52.9,52.1,30.24,WNW,300,0.0,1.0,97,0.00,,,0.00,0,Wunderground v.1.15,2013-08-15 04:53:00,
2013-08-15 00:58:00,52.8,52.0,30.24,NW,304,0.0,1.0,97,0.00,,,0.00,0,Wunderground v.1.15,2013-08-15 04:58:00,
2013-08-15 01:04:00,52.8,52.0,30.24,NW,304,0.0,0.0,97,0.00,,,0.00,0,Wunderground v.1.15,2013-08-15 05:04:00,
2013-08-15 01:10:00,52.9,52.1,30.24,WNW,301,0.0,0.0,97,0.00,,,0.00,0,Wunderground v.1.15,2013-08-15 05:10:00,
2013-08-15 01:15:00,53.0,52.5,30.24,WNW,300,0.0,0.0,98,0.00,,,0.00,0,Wunderground v.1.15,2013-08-15 05:15:00,
2013-08-15 01:20:00,53.1,52.6,30.24,WNW,302,0.0,0.0,98,0.00,,,0.00,0,Wunderground v.1.15,2013-08-15 05:20:00,
2013-08-15 01:26:00,53.1,52.6,30.24,North,360,0.0,0.0,98,0.00,,,0.00,0,Wunderground v.1.15,2013-08-15 05:26:00,
2013-08-15 01:31:00,53.0,52.5,30.24,WNW,303,0.0,0.0,98,0.00,,,0.00,0,Wunderground v.1.15,2013-08-15 05:31:00,
2013-08-15 01:36:00,53.1,52.6,30.24,NW,306,0.0,1.0,98,0.00,,,0.00,0,Wunderground v.1.15,2013-08-15 05:36:00,
2013-08-15 01:42:00,53.2,52.7,30.24,WNW,301,1.0,1.0,98,0.00,,,0.00,0,Wunderground v.1.15,2013-08-15 05:42:00,
2013-08-15 01:47:00,53.1,52.6,30.24,WNW,302,1.0,1.0,98,0.00,,,0.00,0,Wunderground v.1.15,2013-08-15 05:47:00,
2013-08-15 01:52:00,53.1,52.6,30.24,WNW,301,0.0,0.0,98,0.00,,,0.00,0,Wunderground v.1.15,2013-08-15 05:52:00,
2013-08-15 01:58:00,52.9,52.1,30.24,WNW,303,0.0,1.0,97,0.00,,,0.00,0,Wunderground v.1.15,2013-08-15 05:58:00,
2013-08-15 02:04:00,52.9,52.4,30.24,WSW,257,1.0,1.0,98,0.00,,,0.00,0,Wunderground v.1.15,2013-08-15 06:04:00,
2013-08-15 02:09:00,52.9,52.4,30.24,WSW,254,1.0,2.0,98,0.00,,,0.00,0,Wunderground v.1.15,2013-08-15 06:09:00,
2013-08-15 02:14:00,52.9,52.4,30.24,WSW,254,1.0,2.0,98,0.00,,,0.00,0,Wunderground v.1.15,2013-08-15 06:14:00,
2013-08-15 02:20:00,53.0,52.5,30.24,WSW,257,0.0,0.0,98,0.00,,,0.00,0,Wunderground v.1.15,2013-08-15 06:20:00,
2013-08-15 02:25:00,52.9,52.4,30.24,WSW,257,0.0,0.0,98,0.00,,,0.00,0,Wunderground v.1.15,2013-08-15 06:25:00,
2013-08-15 02:31:00,52.7,52.2,30.24,WSW,256,0.0,0.0,98,0.00,,,0.00,0,Wunderground v.1.15,2013-08-15 06:31:00,
2013-08-15 02:36:00,52.6,52.1,30.24,WSW,255,0.0,0.0,98,0.00,,,0.00,0,Wunderground v.1.15,2013-08-15 06:36:00,
2013-08-15 02:41:00,52.5,52.0,30.24,WSW,257,0.0,0.0,98,0.00,,,0.00,0,Wunderground v.1.15,2013-08-15 06:41:00,
2013-08-15 02:47:00,52.4,51.9,30.24,WSW,254,0.0,1.0,98,0.00,,,0.00,0,Wunderground v.1.15,2013-08-15 06:47:00,
2013-08-15 02:52:00,52.4,51.9,30.24,WSW,258,1.0,1.0,98,0.00,,,0.00,0,Wunderground v.1.15,2013-08-15 06:52:00,
2013-08-15 02:57:00,52.3,51.5,30.24,WSW,255,0.0,1.0,97,0.00,,,0.00,0,Wunderground v.1.15,2013-08-15 06:57:00,
2013-08-15 03:03:00,52.2,51.4,30.24,WSW,257,0.0,0.0,97,0.00,,,0.00,0,Wunderground v.1.15,2013-08-15 07:03:00,
2013-08-15 03:09:00,52.0,51.2,30.24,WSW,256,0.0,0.0,97,0.00,,,0.00,0,Wunderground v.1.15,2013-08-15 07:09:00,
2013-08-15 03:14:00,51.8,51.0,30.25,WSW,255,0.0,1.0,97,0.00,,,0.00,0,Wunderground v.1.15,2013-08-15 07:14:00,
2013-08-15 03:19:00,51.6,50.8,30.25,WSW,257,0.0,1.0,97,0.00,,,0.00,0,Wunderground v.1.15,2013-08-15 07:19:00,
2013-08-15 03:25:00,51.4,50.6,30.25,WSW,255,0.0,0.0,97,0.00,,,0.00,0,Wunderground v.1.15,2013-08-15 07:25:00,
2013-08-15 03:30:00,51.3,50.5,30.25,WSW,255,0.0,0.0,97,0.00,,,0.00,0,Wunderground v.1.15,2013-08-15 07:30:00,
2013-08-15 03:35:00,51.2,50.7,30.25,WSW,258,0.0,1.0,98,0.00,,,0.00,0,Wunderground v.1.15,2013-08-15 07:35:00,
2013-08-15 03:41:00,51.1,50.6,30.25,WSW,256,0.0,0.0,98,0.00,,,0.00,0,Wunderground v.1.15,2013-08-15 07:41:00,
2013-08-15 03:46:00,51.1,50.6,30.25,WSW,257,0.0,0.0,98,0.00,,,0.00,0,Wunderground v.1.15,2013-08-15 07:46:00,
2013-08-15 03:51:00,51.1,50.6,30.25,WSW,254,0.0,0.0,98,0.00,,,0.00,0,Wunderground v.1.15,2013-08-15 07:51:00,
2013-08-15 03:56:00,51.2,50.7,30.25,WSW,257,0.0,1.0,98,0.00,,,0.00,0,Wunderground v.1.15,2013-08-15 07:56:00,
2013-08-15 04:02:00,51.2,50.7,30.25,WSW,257,1.0,2.0,98,0.00,,,0.00,0,Wunderground v.1.15,2013-08-15 08:02:00,
2013-08-15 04:07:00,51.2,50.7,30.25,WSW,257,2.0,2.0,98,0.00,,,0.00,0,Wunderground v.1.15,2013-08-15 08:07:00,
2013-08-15 04:12:00,51.2,50.7,30.25,WSW,255,2.0,2.0,98,0.00,,,0.00,0,Wunderground v.1.15,2013-08-15 08:12:00,
2013-08-15 04:17:00,51.1,50.6,30.25,WSW,256,1.0,2.0,98,0.00,,,0.00,0,Wunderground v.1.15,2013-08-15 08:17:00,
2013-08-15 04:22:00,50.8,50.3,30.25,WSW,257,0.0,0.0,98,0.00,,,0.00,0,Wunderground v.1.15,2013-08-15 08:22:00,
2013-08-15 04:28:00,50.5,50.0,30.25,West,260,0.0,0.0,98,0.00,,,0.00,0,Wunderground v.1.15,2013-08-15 08:28:00,
2013-08-15 04:33:00,50.3,49.8,30.25,WSW,254,0.0,1.0,98,0.00,,,0.00,0,Wunderground v.1.15,2013-08-15 08:33:00,
2013-08-15 04:38:00,50.1,49.6,30.25,WSW,257,0.0,1.0,98,0.00,,,0.00,0,Wunderground v.1.15,2013-08-15 08:38:00,
2013-08-15 04:44:00,50.0,49.5,30.25,WSW,254,0.0,0.0,98,0.00,,,0.00,0,Wunderground v.1.15,2013-08-15 08:44:00,
2013-08-15 04:49:00,50.1,49.6,30.25,WSW,255,0.0,1.0,98,0.00,,,0.00,0,Wunderground v.1.15,2013-08-15 08:49:00,
2013-08-15 04:55:00,50.1,49.6,30.25,WSW,257,1.0,1.0,98,0.00,,,0.00,0,Wunderground v.1.15,2013-08-15 08:55:00,
2013-08-15 05:00:00,50.0,49.5,30.25,WSW,257,0.0,0.0,98,0.00,,,0.00,0,Wunderground v.1.15,2013-08-15 09:00:00,
2013-08-15 05:06:00,49.8,49.3,30.25,WSW,258,0.0,0.0,98,0.00,,,0.00,0,Wunderground v.1.15,2013-08-15 09:06:00,
2013-08-15 05:11:00,49.6,49.1,30.25,WSW,256,0.0,0.0,98,0.00,,,0.00,0,Wunderground v.1.15,2013-08-15 09:11:00,
2013-08-15 05:16:00,49.5,49.0,30.25,WSW,257,0.0,0.0,98,0.00,,,0.00,0,Wunderground v.1.15,2013-08-15 09:16:00,
2013-08-15 05:22:00,49.3,48.8,30.25,WSW,258,0.0,0.0,98,0.00,,,0.00,0,Wunderground v.1.15,2013-08-15 09:22:00,
2013-08-15 05:27:00,49.3,48.8,30.25,WSW,255,0.0,0.0,98,0.00,,,0.00,0,Wunderground v.1.15,2013-08-15 09:27:00,
2013-08-15 05:33:00,49.3,48.8,30.25,WSW,256,0.0,0.0,98,0.00,,,0.00,0,Wunderground v.1.15,2013-08-15 09:33:00,
2013-08-15 05:38:00,49.2,48.7,30.26,WSW,254,0.0,0.0,98,0.00,,,0.00,0,Wunderground v.1.15,2013-08-15 09:38:00,
2013-08-15 05:43:00,49.1,48.6,30.26,WSW,256,0.0,0.0,98,0.00,,,0.00,0,Wunderground v.1.15,2013-08-15 09:43:00,
2013-08-15 05:49:00,49.2,48.9,30.26,WSW,257,0.0,0.0,99,0.00,,,0.00,0,Wunderground v.1.15,2013-08-15 09:49:00,
2013-08-15 05:54:00,49.1,48.8,30.26,WSW,256,0.0,0.0,99,0.00,,,0.00,0,Wunderground v.1.15,2013-08-15 09:54:00,
2013-08-15 05:59:00,48.9,48.6,30.26,WSW,254,0.0,0.0,99,0.00,,,0.00,0,Wunderground v.1.15,2013-08-15 09:59:00,
2013-08-15 06:05:00,48.8,48.3,30.26,WSW,258,0.0,0.0,98,0.00,,,0.00,0,Wunderground v.1.15,2013-08-15 10:05:00,
2013-08-15 06:11:00,48.8,48.3,30.26,WSW,254,0.0,0.0,98,0.00,,,0.00,0,Wunderground v.1.15,2013-08-15 10:11:00,
2013-08-15 06:16:00,48.7,48.2,30.26,WSW,257,0.0,1.0,98,0.00,,,0.00,0,Wunderground v.1.15,2013-08-15 10:16:00,
2013-08-15 06:21:00,48.6,48.3,30.26,WSW,257,1.0,2.0,99,0.00,,,0.00,0,Wunderground v.1.15,2013-08-15 10:21:00,
2013-08-15 06:27:00,48.5,48.2,30.26,WSW,254,1.0,2.0,99,0.00,,,0.00,5,Wunderground v.1.15,2013-08-15 10:27:00,
2013-08-15 06:32:00,48.5,48.2,30.26,WSW,255,0.0,1.0,99,0.00,,,0.00,5,Wunderground v.1.15,2013-08-15 10:32:00,
2013-08-15 06:38:00,48.3,47.8,30.26,WSW,256,0.0,1.0,98,0.00,,,0.00,9,Wunderground v.1.15,2013-08-15 10:38:00,
2013-08-15 06:43:00,48.2,47.7,30.27,North,360,0.0,1.0,98,0.00,,,0.00,12,Wunderground v.1.15,2013-08-15 10:43:00,
2013-08-15 06:49:00,48.2,47.9,30.27,North,360,0.0,1.0,99,0.00,,,0.00,16,Wunderground v.1.15,2013-08-15 10:49:00,
2013-08-15 06:54:00,48.3,48.0,30.27,WSW,255,0.0,1.0,99,0.00,,,0.00,18,Wunderground v.1.15,2013-08-15 10:54:00,
2013-08-15 06:59:00,48.4,48.1,30.27,WSW,254,0.0,1.0,99,0.00,,,0.00,39,Wunderground v.1.15,2013-08-15 10:59:00,
2013-08-15 07:05:00,48.5,48.2,30.27,North,360,0.0,1.0,99,0.00,,,0.00,49,Wunderground v.1.15,2013-08-15 11:05:00,
2013-08-15 07:11:00,48.7,48.4,30.27,North,360,0.0,0.0,99,0.00,,,0.00,69,Wunderground v.1.15,2013-08-15 11:11:00,
2013-08-15 07:16:00,48.9,48.6,30.27,WSW,256,0.0,0.0,99,0.00,,,0.00,93,Wunderground v.1.15,2013-08-15 11:16:00,
2013-08-15 07:21:00,49.4,49.4,30.28,North,360,0.0,0.0,100,0.00,,,0.00,109,Wunderground v.1.15,2013-08-15 11:21:00,
2013-08-15 07:27:00,50.0,50.0,30.28,North,360,0.0,0.0,100,0.00,,,0.00,114,Wunderground v.1.15,2013-08-15 11:27:00,
2013-08-15 07:32:00,50.2,50.2,30.28,North,360,0.0,0.0,100,0.00,,,0.00,70,Wunderground v.1.15,2013-08-15 11:32:00,
2013-08-15 07:37:00,50.5,50.5,30.28,North,360,0.0,0.0,100,0.00,,,0.00,134,Wunderground v.1.15,2013-08-15 11:37:00,
2013-08-15 07:43:00,51.2,51.2,30.28,WSW,255,0.0,0.0,100,0.00,,,0.00,107,Wunderground v.1.15,2013-08-15 11:43:00,
2013-08-15 07:48:00,51.7,51.7,30.28,WSW,256,0.0,0.0,100,0.00,,,0.00,139,Wunderground v.1.15,2013-08-15 11:48:00,
2013-08-15 07:53:00,52.0,52.0,30.28,West,259,0.0,0.0,100,0.00,,,0.00,86,Wunderground v.1.15,2013-08-15 11:53:00,
2013-08-15 07:59:00,52.1,52.1,30.28,WSW,254,0.0,0.0,100,0.00,,,0.00,90,Wunderground v.1.15,2013-08-15 11:59:00,
2013-08-15 08:05:00,52.4,52.1,30.29,West,259,0.0,0.0,99,0.00,,,0.00,248,Wunderground v.1.15,2013-08-15 12:05:00,
2013-08-15 08:10:00,52.8,52.5,30.29,SSE,158,0.0,1.0,99,0.00,,,0.00,264,Wunderground v.1.15,2013-08-15 12:10:00,
2013-08-15 08:15:00,53.2,52.9,30.29,SSE,160,0.0,1.0,99,0.00,,,0.00,285,Wunderground v.1.15,2013-08-15 12:15:00,
2013-08-15 08:21:00,53.7,53.4,30.29,SSE,160,0.0,0.0,99,0.00,,,0.00,292,Wunderground v.1.15,2013-08-15 12:21:00,
2013-08-15 08:26:00,54.3,53.7,30.29,SSE,161,0.0,0.0,98,0.00,,,0.00,316,Wunderground v.1.15,2013-08-15 12:26:00,
2013-08-15 08:32:00,55.0,53.9,30.29,SSE,160,0.0,0.0,96,0.00,,,0.00,336,Wunderground v.1.15,2013-08-15 12:32:00,
2013-08-15 08:37:00,55.5,54.1,30.29,ESE,117,0.0,2.0,95,0.00,,,0.00,346,Wunderground v.1.15,2013-08-15 12:37:00,
2013-08-15 08:42:00,56.3,54.9,30.29,ENE,74,1.0,3.0,95,0.00,,,0.00,374,Wunderground v.1.15,2013-08-15 12:42:00,
2013-08-15 08:48:00,56.8,55.4,30.29,ENE,60,2.0,3.0,95,0.00,,,0.00,388,Wunderground v.1.15,2013-08-15 12:48:00,
2013-08-15 08:53:00,57.3,55.6,30.30,East,98,2.0,2.0,94,0.00,,,0.00,411,Wunderground v.1.15,2013-08-15 12:53:00,
2013-08-15 08:58:00,57.7,55.4,30.30,East,98,1.0,3.0,92,0.00,,,0.00,432,Wunderground v.1.15,2013-08-15 12:58:00,
2013-08-15 09:04:00,58.3,55.7,30.29,ENE,77,1.0,2.0,91,0.00,,,0.00,457,Wunderground v.1.15,2013-08-15 13:04:00,
2013-08-15 09:10:00,58.6,55.7,30.30,ENE,76,2.0,2.0,90,0.00,,,0.00,482,Wunderground v.1.15,2013-08-15 13:10:00,
2013-08-15 09:15:00,58.8,56.2,30.29,ENE,78,1.0,2.0,91,0.00,,,0.00,496,Wunderground v.1.15,2013-08-15 13:15:00,
2013-08-15 09:20:00,59.2,56.3,30.29,ENE,78,1.0,1.0,90,0.00,,,0.00,510,Wunderground v.1.15,2013-08-15 13:20:00,
2013-08-15 09:26:00,59.7,56.5,30.29,ENE,78,1.0,2.0,89,0.00,,,0.00,531,Wunderground v.1.15,2013-08-15 13:26:00,
2013-08-15 09:31:00,60.1,56.5,30.29,ENE,76,0.0,0.0,88,0.00,,,0.00,545,Wunderground v.1.15,2013-08-15 13:31:00,
2013-08-15 09:37:00,60.8,57.2,30.29,ENE,78,1.0,2.0,88,0.00,,,0.00,563,Wunderground v.1.15,2013-08-15 13:37:00,
2013-08-15 09:42:00,61.2,57.0,30.29,ENE,72,1.0,1.0,86,0.00,,,0.00,577,Wunderground v.1.15,2013-08-15 13:42:00,
2013-08-15 09:48:00,61.9,57.7,30.29,SE,124,1.0,2.0,86,0.00,,,0.00,594,Wunderground v.1.15,2013-08-15 13:48:00,
2013-08-15 09:53:00,62.6,57.4,30.29,ESE,122,1.0,2.0,83,0.00,,,0.00,608,Wunderground v.1.15,2013-08-15 13:53:00,
2013-08-15 09:58:00,63.1,57.2,30.29,East,90,1.0,3.0,81,0.00,,,0.00,621,Wunderground v.1.15,2013-08-15 13:58:00,
2013-08-15 10:04:00,63.2,57.3,30.29,East,87,1.0,1.0,81,0.00,,,0.00,636,Wunderground v.1.15,2013-08-15 14:04:00,
2013-08-15 10:09:00,63.4,57.5,30.29,East,90,1.0,2.0,81,0.00,,,0.00,654,Wunderground v.1.15,2013-08-15 14:09:00,
2013-08-15 10:15:00,63.8,57.5,30.29,ENE,74,1.0,3.0,80,0.00,,,0.00,666,Wunderground v.1.15,2013-08-15 14:15:00,
2013-08-15 10:20:00,64.4,57.0,30.29,ENE,63,1.0,3.0,77,0.00,,,0.00,680,Wunderground v.1.15,2013-08-15 14:20:00,
2013-08-15 10:26:00,65.0,56.5,30.29,ESE,119,1.0,3.0,74,0.00,,,0.00,700,Wunderground v.1.15,2013-08-15 14:26:00,
2013-08-15 10:32:00,65.7,56.4,30.29,ESE,117,1.0,1.0,72,0.00,,,0.00,707,Wunderground v.1.15,2013-08-15 14:32:00,
2013-08-15 10:37:00,66.2,57.3,30.29,ENE,60,1.0,3.0,73,0.00,,,0.00,721,Wunderground v.1.15,2013-08-15 14:37:00,
2013-08-15 10:42:00,66.3,57.8,30.29,ENE,59,1.0,1.0,74,0.00,,,0.00,731,Wunderground v.1.15,2013-08-15 14:42:00,
2013-08-15 10:48:00,66.7,57.0,30.29,ENE,63,2.0,3.0,71,0.00,,,0.00,751,Wunderground v.1.15,2013-08-15 14:48:00,
2013-08-15 10:54:00,66.8,57.1,30.29,ENE,67,2.0,3.0,71,0.00,,,0.00,763,Wunderground v.1.15,2013-08-15 14:54:00,
2013-08-15 10:59:00,67.1,56.6,30.28,SE,136,2.0,5.0,69,0.00,,,0.00,779,Wunderground v.1.15,2013-08-15 14:59:00,
2013-08-15 11:05:00,67.9,57.4,30.29,SSW,198,3.0,5.0,69,0.00,,,0.00,786,Wunderground v.1.15,2013-08-15 15:05:00,
2013-08-15 11:10:00,68.6,57.6,30.29,SSE,157,2.0,2.0,68,0.00,,,0.00,803,Wunderground v.1.15,2013-08-15 15:10:00,
2013-08-15 11:16:00,69.0,58.8,30.29,ENE,76,2.0,5.0,70,0.00,,,0.00,838,Wunderground v.1.15,2013-08-15 15:16:00,
2013-08-15 11:21:00,69.2,55.2,30.28,North,9,1.0,1.0,61,0.00,,,0.00,831,Wunderground v.1.15,2013-08-15 15:21:00,
2013-08-15 11:27:00,69.5,59.7,30.28,East,95,1.0,5.0,71,0.00,,,0.00,835,Wunderground v.1.15,2013-08-15 15:27:00,
2013-08-15 11:33:00,69.7,56.1,30.28,ENE,72,3.0,8.0,62,0.00,,,0.00,846,Wunderground v.1.15,2013-08-15 15:33:00,
2013-08-15 11:38:00,69.4,55.8,30.28,ENE,69,5.0,8.0,62,0.00,,,0.00,835,Wunderground v.1.15,2013-08-15 15:38:00,
2013-08-15 11:43:00,69.4,56.3,30.28,East,85,4.0,6.0,63,0.00,,,0.00,875,Wunderground v.1.15,2013-08-15 15:43:00,
2013-08-15 11:49:00,69.8,55.7,30.28,WSW,239,3.0,6.0,61,0.00,,,0.00,879,Wunderground v.1.15,2013-08-15 15:49:00,
2013-08-15 11:55:00,70.3,54.3,30.27,SSE,155,3.0,4.0,57,0.00,,,0.00,868,Wunderground v.1.15,2013-08-15 15:55:00,
2013-08-15 12:00:00,70.1,55.1,30.27,ENE,63,3.0,3.0,59,0.00,,,0.00,900,Wunderground v.1.15,2013-08-15 16:00:00,
2013-08-15 12:06:00,70.2,55.2,30.27,NE,49,2.0,8.0,59,0.00,,,0.00,914,Wunderground v.1.15,2013-08-15 16:06:00,
2013-08-15 12:11:00,70.1,53.2,30.28,ENE,73,3.0,5.0,55,0.00,,,0.00,935,Wunderground v.1.15,2013-08-15 16:11:00,
2013-08-15 12:16:00,69.9,54.0,30.28,ENE,59,3.0,5.0,57,0.00,,,0.00,925,Wunderground v.1.15,2013-08-15 16:16:00,
2013-08-15 12:21:00,70.1,53.2,30.27,ESE,114,2.0,2.0,55,0.00,,,0.00,907,Wunderground v.1.15,2013-08-15 16:21:00,
2013-08-15 12:27:00,70.4,53.0,30.27,North,360,1.0,5.0,54,0.00,,,0.00,865,Wunderground v.1.15,2013-08-15 16:27:00,
2013-08-15 12:32:00,70.7,54.7,30.26,SW,231,2.0,5.0,57,0.00,,,0.00,830,Wunderground v.1.15,2013-08-15 16:32:00,
2013-08-15 12:37:00,71.1,54.6,30.26,SSE,155,3.0,5.0,56,0.00,,,0.00,694,Wunderground v.1.15,2013-08-15 16:37:00,
2013-08-15 12:42:00,71.3,54.3,30.26,SE,146,2.0,3.0,55,0.00,,,0.00,868,Wunderground v.1.15,2013-08-15 16:42:00,
2013-08-15 12:48:00,71.7,54.7,30.26,WSW,241,3.0,4.0,55,0.00,,,0.00,842,Wunderground v.1.15,2013-08-15 16:48:00,
2013-08-15 12:54:00,72.3,57.2,30.26,ESE,105,3.0,6.0,59,0.00,,,0.00,847,Wunderground v.1.15,2013-08-15 16:54:00,
2013-08-15 12:59:00,72.3,56.2,30.25,East,91,3.0,6.0,57,0.00,,,0.00,837,Wunderground v.1.15,2013-08-15 16:59:00,
2013-08-15 13:05:00,72.2,54.1,30.25,NNE,29,3.0,6.0,53,0.00,,,0.00,898,Wunderground v.1.15,2013-08-15 17:05:00,
2013-08-15 13:10:00,72.3,57.2,30.25,ESE,123,2.0,2.0,59,0.00,,,0.00,889,Wunderground v.1.15,2013-08-15 17:10:00,
2013-08-15 13:16:00,72.9,55.8,30.25,SSE,150,2.0,4.0,55,0.00,,,0.00,789,Wunderground v.1.15,2013-08-15 17:16:00,
2013-08-15 13:21:00,72.8,54.1,30.24,ENE,59,4.0,5.0,52,0.00,,,0.00,893,Wunderground v.1.15,2013-08-15 17:21:00,
2013-08-15 13:26:00,72.5,55.4,30.24,NE,47,5.0,8.0,55,0.00,,,0.00,889,Wunderground v.1.15,2013-08-15 17:26:00,
2013-08-15 13:32:00,72.2,55.1,30.24,NE,38,3.0,4.0,55,0.00,,,0.00,851,Wunderground v.1.15,2013-08-15 17:32:00,
2013-08-15 13:38:00,72.0,54.4,30.24,ENE,78,3.0,7.0,54,0.00,,,0.00,756,Wunderground v.1.15,2013-08-15 17:38:00,
2013-08-15 13:43:00,71.6,57.4,30.24,East,100,4.0,4.0,61,0.00,,,0.00,844,Wunderground v.1.15,2013-08-15 17:43:00,
2013-08-15 13:49:00,72.3,54.7,30.24,SSW,205,1.0,4.0,54,0.00,,,0.00,879,Wunderground v.1.15,2013-08-15 17:49:00,
2013-08-15 13:54:00,73.4,56.2,30.24,SE,146,1.0,3.0,55,0.00,,,0.00,819,Wunderground v.1.15,2013-08-15 17:54:00,
2013-08-15 14:00:00,73.9,56.7,30.23,South,181,2.0,6.0,55,0.00,,,0.00,849,Wunderground v.1.15,2013-08-15 18:00:00,
2013-08-15 14:06:00,74.7,58.0,30.23,South,171,5.0,7.0,56,0.00,,,0.00,524,Wunderground v.1.15,2013-08-15 18:06:00,
2013-08-15 14:12:00,74.8,54.4,30.23,South,180,4.0,7.0,49,0.00,,,0.00,654,Wunderground v.1.15,2013-08-15 18:12:00,
2013-08-15 14:17:00,74.9,53.3,30.22,SSW,208,4.0,7.0,47,0.00,,,0.00,902,Wunderground v.1.15,2013-08-15 18:17:00,
2013-08-15 14:22:00,75.2,56.4,30.22,SSW,204,4.0,4.0,52,0.00,,,0.00,991,Wunderground v.1.15,2013-08-15 18:22:00,
2013-08-15 14:28:00,75.4,55.5,30.22,SSE,159,2.0,4.0,50,0.00,,,0.00,951,Wunderground v.1.15,2013-08-15 18:28:00,
2013-08-15 14:33:00,75.7,54.6,30.22,ENE,65,0.0,1.0,48,0.00,,,0.00,896,Wunderground v.1.15,2013-08-15 18:33:00,
2013-08-15 14:39:00,75.5,54.4,30.22,East,97,1.0,5.0,48,0.00,,,0.00,745,Wunderground v.1.15,2013-08-15 18:39:00,
2013-08-15 14:45:00,75.3,57.0,30.22,East,84,3.0,6.0,53,0.00,,,0.00,754,Wunderground v.1.15,2013-08-15 18:45:00,
2013-08-15 14:50:00,74.9,55.6,30.22,SE,129,3.0,3.0,51,0.00,,,0.00,816,Wunderground v.1.15,2013-08-15 18:50:00,
2013-08-15 14:55:00,74.7,56.9,30.21,SE,144,3.0,6.0,54,0.00,,,0.00,803,Wunderground v.1.15,2013-08-15 18:55:00,
2013-08-15 15:01:00,74.5,54.6,30.21,SE,127,2.0,2.0,50,0.00,,,0.00,701,Wunderground v.1.15,2013-08-15 19:01:00,
2013-08-15 15:07:00,74.8,54.9,30.21,NNE,32,0.0,6.0,50,0.00,,,0.00,587,Wunderground v.1.15,2013-08-15 19:07:00,
2013-08-15 15:13:00,74.9,57.6,30.21,East,98,2.0,3.0,55,0.00,,,0.00,666,Wunderground v.1.15,2013-08-15 19:13:00,
2013-08-15 15:19:00,75.2,56.4,30.21,ENE,73,3.0,5.0,52,0.00,,,0.00,810,Wunderground v.1.15,2013-08-15 19:19:00,
2013-08-15 15:24:00,74.8,55.5,30.20,SE,132,2.0,3.0,51,0.00,,,0.00,729,Wunderground v.1.15,2013-08-15 19:24:00,
2013-08-15 15:29:00,74.6,57.9,30.20,ESE,109,2.0,3.0,56,0.00,,,0.00,703,Wunderground v.1.15,2013-08-15 19:29:00,
2013-08-15 15:35:00,75.0,55.1,30.20,SSE,154,1.0,3.0,50,0.00,,,0.00,360,Wunderground v.1.15,2013-08-15 19:35:00,
2013-08-15 15:40:00,75.2,55.8,30.20,East,84,2.0,5.0,51,0.00,,,0.00,671,Wunderground v.1.15,2013-08-15 19:40:00,
2013-08-15 15:46:00,75.4,57.6,30.20,ENE,74,4.0,7.0,54,0.00,,,0.00,696,Wunderground v.1.15,2013-08-15 19:46:00,
2013-08-15 15:51:00,75.1,55.2,30.20,ENE,74,4.0,4.0,50,0.00,,,0.00,772,Wunderground v.1.15,2013-08-15 19:51:00,
2013-08-15 15:57:00,75.1,56.3,30.19,ENE,65,2.0,5.0,52,0.00,,,0.00,816,Wunderground v.1.15,2013-08-15 19:57:00,
2013-08-15 16:02:00,75.3,57.0,30.19,ENE,71,2.0,2.0,53,0.00,,,0.00,802,Wunderground v.1.15,2013-08-15 20:02:00,
2013-08-15 16:08:00,75.9,58.6,30.19,SSE,161,2.0,5.0,55,0.00,,,0.00,680,Wunderground v.1.15,2013-08-15 20:08:00,
2013-08-15 16:13:00,76.3,56.8,30.19,SW,235,4.0,4.0,51,0.00,,,0.00,436,Wunderground v.1.15,2013-08-15 20:13:00,
2013-08-15 16:18:00,76.8,57.3,30.19,West,267,4.0,4.0,51,0.00,,,0.00,619,Wunderground v.1.15,2013-08-15 20:18:00,
2013-08-15 16:23:00,77.1,55.9,30.19,East,88,1.0,2.0,48,0.00,,,0.00,671,Wunderground v.1.15,2013-08-15 20:23:00,
2013-08-15 16:29:00,77.3,57.2,30.18,NW,317,1.0,4.0,50,0.00,,,0.00,659,Wunderground v.1.15,2013-08-15 20:29:00,
2013-08-15 16:34:00,77.3,56.1,30.18,North,9,2.0,4.0,48,0.00,,,0.00,645,Wunderground v.1.15,2013-08-15 20:34:00,
2013-08-15 16:40:00,76.6,56.0,30.18,ENE,68,3.0,3.0,49,0.00,,,0.00,633,Wunderground v.1.15,2013-08-15 20:40:00,
2013-08-15 16:45:00,76.1,57.7,30.18,ENE,71,2.0,3.0,53,0.00,,,0.00,552,Wunderground v.1.15,2013-08-15 20:45:00,
2013-08-15 16:51:00,75.5,56.1,30.18,ESE,103,3.0,4.0,51,0.00,,,0.00,568,Wunderground v.1.15,2013-08-15 20:51:00,
2013-08-15 16:56:00,75.2,57.4,30.18,ESE,117,2.0,4.0,54,0.00,,,0.00,492,Wunderground v.1.15,2013-08-15 20:56:00,
2013-08-15 17:01:00,75.4,56.5,30.18,East,82,1.0,5.0,52,0.00,,,0.00,573,Wunderground v.1.15,2013-08-15 21:01:00,
2013-08-15 17:07:00,75.5,55.0,30.18,East,85,3.0,7.0,49,0.00,,,0.00,547,Wunderground v.1.15,2013-08-15 21:07:00,
2013-08-15 17:12:00,75.3,54.8,30.18,ENE,63,4.0,5.0,49,0.00,,,0.00,492,Wunderground v.1.15,2013-08-15 21:12:00,
2013-08-15 17:18:00,75.3,54.8,30.18,ENE,77,3.0,5.0,49,0.00,,,0.00,464,Wunderground v.1.15,2013-08-15 21:18:00,
2013-08-15 17:23:00,75.2,54.7,30.18,East,82,3.0,4.0,49,0.00,,,0.00,362,Wunderground v.1.15,2013-08-15 21:23:00,
2013-08-15 17:29:00,75.6,55.6,30.18,North,5,3.0,4.0,50,0.00,,,0.00,446,Wunderground v.1.15,2013-08-15 21:29:00,
2013-08-15 17:35:00,76.2,55.6,30.18,NE,53,2.0,4.0,49,0.00,,,0.00,436,Wunderground v.1.15,2013-08-15 21:35:00,
2013-08-15 17:41:00,75.7,55.7,30.18,East,80,3.0,3.0,50,0.00,,,0.00,410,Wunderground v.1.15,2013-08-15 21:41:00,
2013-08-15 17:47:00,75.6,55.1,30.18,ESE,103,3.0,3.0,49,0.00,,,0.00,397,Wunderground v.1.15,2013-08-15 21:47:00,
2013-08-15 17:52:00,75.7,55.7,30.18,NW,312,2.0,2.0,50,0.00,,,0.00,378,Wunderground v.1.15,2013-08-15 21:52:00,
2013-08-15 17:57:00,75.7,56.8,30.18,ESE,107,2.0,3.0,52,0.00,,,0.00,195,Wunderground v.1.15,2013-08-15 21:57:00,
2013-08-15 18:03:00,75.4,57.1,30.18,East,101,3.0,3.0,53,0.00,,,0.00,81,Wunderground v.1.15,2013-08-15 22:03:00,
2013-08-15 18:09:00,75.0,55.6,30.19,East,79,2.0,4.0,51,0.00,,,0.00,83,Wunderground v.1.15,2013-08-15 22:09:00,
2013-08-15 18:14:00,74.7,55.9,30.18,North,360,2.0,5.0,52,0.00,,,0.00,84,Wunderground v.1.15,2013-08-15 22:14:00,
2013-08-15 18:20:00,74.1,55.3,30.18,NNE,19,3.0,3.0,52,0.00,,,0.00,84,Wunderground v.1.15,2013-08-15 22:20:00,
2013-08-15 18:25:00,73.7,56.0,30.18,NNE,32,3.0,3.0,54,0.00,,,0.00,79,Wunderground v.1.15,2013-08-15 22:25:00,
2013-08-15 18:31:00,73.4,56.2,30.18,North,9,2.0,3.0,55,0.00,,,0.00,74,Wunderground v.1.15,2013-08-15 22:31:00,
2013-08-15 18:36:00,73.2,56.1,30.18,NNE,29,3.0,4.0,55,0.00,,,0.00,100,Wunderground v.1.15,2013-08-15 22:36:00,
2013-08-15 18:42:00,73.3,55.6,30.18,NW,323,4.0,6.0,54,0.00,,,0.00,176,Wunderground v.1.15,2013-08-15 22:42:00,
2013-08-15 18:48:00,73.0,55.9,30.18,North,11,5.0,6.0,55,0.00,,,0.00,146,Wunderground v.1.15,2013-08-15 22:48:00,
2013-08-15 18:53:00,72.6,56.0,30.18,NNE,15,5.0,5.0,56,0.00,,,0.00,58,Wunderground v.1.15,2013-08-15 22:53:00,
2013-08-15 18:59:00,72.2,55.6,30.18,NNE,15,4.0,5.0,56,0.00,,,0.00,47,Wunderground v.1.15,2013-08-15 22:59:00,
2013-08-15 19:05:00,71.8,56.2,30.18,North,360,4.0,5.0,58,0.00,,,0.00,47,Wunderground v.1.15,2013-08-15 23:05:00,
2013-08-15 19:11:00,71.3,56.2,30.18,North,5,4.0,4.0,59,0.00,,,0.00,47,Wunderground v.1.15,2013-08-15 23:11:00,
2013-08-15 19:17:00,70.9,57.2,30.18,NNE,16,3.0,4.0,62,0.00,,,0.00,47,Wunderground v.1.15,2013-08-15 23:17:00,
2013-08-15 19:22:00,70.2,57.4,30.18,NNE,12,2.0,3.0,64,0.00,,,0.00,46,Wunderground v.1.15,2013-08-15 23:22:00,
2013-08-15 19:28:00,69.1,57.3,30.18,NNW,328,1.0,3.0,66,0.00,,,0.00,40,Wunderground v.1.15,2013-08-15 23:28:00,
2013-08-15 19:34:00,68.4,57.4,30.18,NNW,346,3.0,4.0,68,0.00,,,0.00,35,Wunderground v.1.15,2013-08-15 23:34:00,
2013-08-15 19:40:00,67.6,57.1,30.18,North,360,3.0,3.0,69,0.00,,,0.00,30,Wunderground v.1.15,2013-08-15 23:40:00,
2013-08-15 19:45:00,67.1,57.0,30.18,NW,325,4.0,6.0,70,0.00,,,0.00,26,Wunderground v.1.15,2013-08-15 23:45:00,
2013-08-15 19:50:00,66.6,56.9,30.19,North,360,5.0,6.0,71,0.00,,,0.00,25,Wunderground v.1.15,2013-08-15 23:50:00,
2013-08-15 19:56:00,66.1,56.8,30.19,NW,317,5.0,6.0,72,0.00,,,0.00,19,Wunderground v.1.15,2013-08-15 23:56:00,
2013-08-15 20:01:00,65.6,56.3,30.19,NW,321,5.0,5.0,72,0.00,,,0.00,12,Wunderground v.1.15,2013-08-16 00:01:00,
2013-08-15 20:06:00,65.2,56.3,30.19,NW,314,5.0,5.0,73,0.00,,,0.00,9,Wunderground v.1.15,2013-08-16 00:06:00,
2013-08-15 20:12:00,64.9,56.0,30.19,NW,315,5.0,6.0,73,0.00,,,0.00,0,Wunderground v.1.15,2013-08-16 00:12:00,
2013-08-15 20:17:00,64.7,56.2,30.19,NW,309,4.0,6.0,74,0.00,,,0.00,0,Wunderground v.1.15,2013-08-16 00:17:00,
2013-08-15 20:23:00,64.3,56.2,30.19,NW,307,2.0,3.0,75,0.00,,,0.00,0,Wunderground v.1.15,2013-08-16 00:23:00,
2013-08-15 20:28:00,63.9,55.8,30.19,NW,312,1.0,5.0,75,0.00,,,0.00,0,Wunderground v.1.15,2013-08-16 00:28:00,
2013-08-15 20:33:00,63.5,55.8,30.19,WNW,294,3.0,5.0,76,0.00,,,0.00,0,Wunderground v.1.15,2013-08-16 00:33:00,
2013-08-15 20:39:00,63.1,56.1,30.20,WNW,299,3.0,5.0,78,0.00,,,0.00,0,Wunderground v.1.15,2013-08-16 00:39:00,
2013-08-15 20:45:00,62.4,55.8,30.20,WNW,283,3.0,4.0,79,0.00,,,0.00,0,Wunderground v.1.15,2013-08-16 00:45:00,
2013-08-15 20:51:00,61.8,55.2,30.20,West,281,2.0,3.0,79,0.00,,,0.00,0,Wunderground v.1.15,2013-08-16 00:51:00,
2013-08-15 20:56:00,61.3,55.4,30.21,WNW,283,1.0,3.0,81,0.00,,,0.00,0,Wunderground v.1.15,2013-08-16 00:56:00,
2013-08-15 21:02:00,60.9,55.4,30.21,West,281,0.0,0.0,82,0.00,,,0.00,0,Wunderground v.1.15,2013-08-16 01:02:00,
2013-08-15 21:08:00,60.5,55.0,30.21,WNW,283,0.0,1.0,82,0.00,,,0.00,0,Wunderground v.1.15,2013-08-16 01:08:00,
2013-08-15 21:13:00,60.2,54.7,30.22,West,280,1.0,2.0,82,0.00,,,0.00,0,Wunderground v.1.15,2013-08-16 01:13:00,
2013-08-15 21:19:00,60.0,54.2,30.22,WNW,287,1.0,2.0,81,0.00,,,0.00,0,Wunderground v.1.15,2013-08-16 01:19:00,
2013-08-15 21:25:00,59.9,54.4,30.22,West,279,1.0,2.0,82,0.00,,,0.00,0,Wunderground v.1.15,2013-08-16 01:25:00,
2013-08-15 21:30:00,59.7,54.9,30.22,West,281,0.0,0.0,84,0.00,,,0.00,0,Wunderground v.1.15,2013-08-16 01:30:00,
2013-08-15 21:35:00,59.5,54.7,30.23,West,281,0.0,1.0,84,0.00,,,0.00,0,Wunderground v.1.15,2013-08-16 01:35:00,
2013-08-15 21:41:00,59.4,54.6,30.23,SW,229,2.0,4.0,84,0.00,,,0.00,0,Wunderground v.1.15,2013-08-16 01:41:00,
2013-08-15 21:46:00,59.4,54.6,30.23,SW,230,1.0,4.0,84,0.00,,,0.00,0,Wunderground v.1.15,2013-08-16 01:46:00,
2013-08-15 21:52:00,59.5,54.7,30.23,SW,230,1.0,1.0,84,0.00,,,0.00,0,Wunderground v.1.15,2013-08-16 01:52:00,
2013-08-15 21:57:00,59.5,54.7,30.23,SW,231,1.0,1.0,84,0.00,,,0.00,0,Wunderground v.1.15,2013-08-16 01:57:00,
2013-08-15 22:03:00,59.6,55.1,30.23,SW,228,1.0,1.0,85,0.00,,,0.00,0,Wunderground v.1.15,2013-08-16 02:03:00,
2013-08-15 22:08:00,59.6,55.1,30.23,SW,227,1.0,3.0,85,0.00,,,0.00,0,Wunderground v.1.15,2013-08-16 02:08:00,
2013-08-15 22:14:00,59.7,55.2,30.23,SW,231,1.0,1.0,85,0.00,,,0.00,0,Wunderground v.1.15,2013-08-16 02:14:00,
2013-08-15 22:19:00,59.6,55.1,30.23,SW,229,0.0,1.0,85,0.00,,,0.00,0,Wunderground v.1.15,2013-08-16 02:19:00,
2013-08-15 22:25:00,59.6,55.4,30.23,SW,230,0.0,0.0,86,0.00,,,0.00,0,Wunderground v.1.15,2013-08-16 02:25:00,
2013-08-15 22:30:00,59.5,55.3,30.23,SW,232,0.0,0.0,86,0.00,,,0.00,0,Wunderground v.1.15,2013-08-16 02:30:00,
2013-08-15 22:36:00,59.3,55.1,30.23,SW,230,0.0,0.0,86,0.00,,,0.00,0,Wunderground v.1.15,2013-08-16 02:36:00,
2013-08-15 22:41:00,59.2,55.0,30.23,North,360,0.0,0.0,86,0.00,,,0.00,0,Wunderground v.1.15,2013-08-16 02:41:00,
2013-08-15 22:47:00,59.0,55.1,30.23,SW,230,0.0,0.0,87,0.00,,,0.00,0,Wunderground v.1.15,2013-08-16 02:47:00,
2013-08-15 22:52:00,58.9,55.0,30.23,SW,229,0.0,1.0,87,0.00,,,0.00,0,Wunderground v.1.15,2013-08-16 02:52:00,
2013-08-15 22:58:00,58.7,55.2,30.23,SW,229,0.0,1.0,88,0.00,,,0.00,0,Wunderground v.1.15,2013-08-16 02:58:00,
2013-08-15 23:03:00,58.5,55.0,30.23,SW,229,0.0,0.0,88,0.00,,,0.00,0,Wunderground v.1.15,2013-08-16 03:03:00,
2013-08-15 23:09:00,58.3,55.1,30.23,SW,229,0.0,0.0,89,0.00,,,0.00,0,Wunderground v.1.15,2013-08-16 03:09:00,
2013-08-15 23:14:00,58.1,55.2,30.23,SW,228,0.0,0.0,90,0.00,,,0.00,0,Wunderground v.1.15,2013-08-16 03:14:00,
2013-08-15 23:20:00,57.9,55.0,30.24,SW,231,0.0,0.0,90,0.00,,,0.00,0,Wunderground v.1.15,2013-08-16 03:20:00,
2013-08-15 23:25:00,57.7,54.8,30.24,SW,227,0.0,0.0,90,0.00,,,0.00,0,Wunderground v.1.15,2013-08-16 03:25:00,
2013-08-15 23:30:00,57.5,54.6,30.24,SW,229,0.0,0.0,90,0.00,,,0.00,0,Wunderground v.1.15,2013-08-16 03:30:00,
2013-08-15 23:36:00,57.3,54.4,30.24,SW,230,0.0,0.0,90,0.00,,,0.00,0,Wunderground v.1.15,2013-08-16 03:36:00,
2013-08-15 23:41:00,57.2,54.3,30.24,SW,228,0.0,0.0,90,0.00,,,0.00,0,Wunderground v.1.15,2013-08-16 03:41:00,
2013-08-15 23:47:00,57.0,54.4,30.23,SW,227,0.0,0.0,91,0.00,,,0.00,0,Wunderground v.1.15,2013-08-16 03:47:00,
2013-08-15 23:52:00,56.6,54.0,30.24,SW,233,0.0,0.0,91,0.00,,,0.00,0,Wunderground v.1.15,2013-08-16 03:52:00,
2013-08-15 23:57:00,56.4,53.8,30.24,SW,229,0.0,0.0,91,0.00,,,0.00,0,Wunderground v.1.15,2013-08-16 03:57:00,